Weather History for Goodland, KS

Change the Weather History Date:

Wednesday, September 5, 2012

  Actual Average Record
Temperature  
Mean Temperature 69 °F 69 °F  
Max Temperature 85 °F 84 °F 104 °F (1931)
Min Temperature 53 °F 55 °F 40 °F (1961)
Degree Days  
Heating Degree Days 0 1  
Month to date heating degree days 0 5  
Since 1 July heating degree days 5 17  
Cooling Degree Days 4 6  
Month to date cooling degree days 48 30  
Year to date cooling degree days 1296 863  
Growing Degree Days 20 (Base 50)    
Moisture  
Dew Point 38 °F    
Average Humidity 48    
Maximum Humidity 80    
Minimum Humidity 16    
Precipitation  
Precipitation 0.00 in 0.04 in 2.30 in (1926)
Month to date precipitation 0.08 0.24  
Year to date precipitation 8.24 16.14  
Snow  
Snow 0.00 in 0.00 in - ()
Month to date snowfall 0.0 0.0  
Since 1 July snowfall 0.0 0.0  
Since 1 September snowfall 0.0 0.0  
Snow Depth 0.00 in    
Sea Level Pressure  
Sea Level Pressure 29.95 in    
Wind  
Wind Speed 10 mph (NE)    
Max Wind Speed 24 mph    
Max Gust Speed 30 mph    
Visibility 10 miles    
Events      
T = Trace of Precipitation, MM = Missing Value Source: NWS Daily Summary

Daily Weather History Graph

Daily Weather History Graph

Search for Another Location

Airport:

Trip Planner

Search our weather history database for the weather conditions in past years. The results will help you decide how hot, cold, wet, or windy it might be!

Date:

Astronomy

Sep. 05, 2012 Rise Set
Actual Time 6:19 AM MDT 7:10 PM MDT
Civil Twilight 5:52 AM MDT 7:37 PM MDT
Nautical Twilight 5:19 AM MDT 8:09 PM MDT
Astronomical Twilight 4:46 AM MDT 8:43 PM MDT
Moon 9:43 PM MDT (9/5) 11:23 AM MDT (9/5)
Length of Visible Light 13h 45m
Length of Day
12h 51m
Waning Gibbous, 75% of the Moon is Illuminated
Sep 5
Waning Gibbous
Sep 8
Last Quarter
Sep 15
New
Sep 22
First Quarter
Sep 29
Full

Hourly Weather History & Observations

Time (MDT) Temp. Dew Point Humidity Pressure Visibility Wind Dir Wind Speed Gust Speed Precip Events Conditions
12:53 AM 62.1 °F 52.0 °F 70% 29.81 in 10.0 mi WSW 8.1 mph - N/A   Clear
1:53 AM 61.0 °F 52.0 °F 72% 29.86 in 10.0 mi West 5.8 mph - N/A   Unknown
2:53 AM 57.0 °F 51.1 °F 81% 29.83 in 10.0 mi West 4.6 mph - N/A   Clear
3:53 AM 57.0 °F 42.1 °F 57% 29.87 in 10.0 mi NNW 11.5 mph - N/A   Clear
4:53 AM 57.9 °F 34.0 °F 41% 29.89 in 10.0 mi North 12.7 mph - N/A   Clear
5:53 AM 55.9 °F 33.1 °F 42% 29.93 in 10.0 mi North 11.5 mph - N/A   Clear
6:53 AM 57.9 °F 36.0 °F 44% 29.96 in 10.0 mi NNW 12.7 mph - N/A   Clear
7:53 AM 62.1 °F 39.0 °F 43% 29.98 in 10.0 mi North 17.3 mph 27.6 mph N/A   Clear
8:53 AM 64.9 °F 39.0 °F 39% 30.02 in 10.0 mi North 19.6 mph 29.9 mph N/A   Clear
9:53 AM 70.0 °F 39.0 °F 32% 30.02 in 10.0 mi North 19.6 mph 25.3 mph N/A   Clear
10:53 AM 73.0 °F 37.0 °F 27% 30.01 in 10.0 mi North 20.7 mph 28.8 mph N/A   Clear
11:53 AM 78.1 °F 37.0 °F 23% 30.01 in 10.0 mi NNE 12.7 mph - N/A   Clear
12:53 PM 82.0 °F 33.1 °F 17% 29.99 in 10.0 mi ENE 11.5 mph 18.4 mph N/A   Clear
1:53 PM 82.0 °F 33.1 °F 17% 29.97 in 10.0 mi ENE 12.7 mph 20.7 mph N/A   Clear
2:53 PM 84.0 °F 33.1 °F 16% 29.96 in 10.0 mi ENE 10.4 mph 18.4 mph N/A   Clear
3:53 PM 84.0 °F 33.1 °F 16% 29.95 in 10.0 mi Variable 3.5 mph - N/A   Clear
4:53 PM 84.0 °F 33.1 °F 16% 29.94 in 10.0 mi East 8.1 mph - N/A   Clear
5:53 PM 82.0 °F 33.1 °F 17% 29.93 in 10.0 mi SE 8.1 mph - N/A   Clear
6:53 PM 71.1 °F 39.0 °F 31% 29.94 in 10.0 mi SE 8.1 mph - N/A   Clear
7:53 PM 62.1 °F 39.0 °F 43% 29.96 in 10.0 mi SE 5.8 mph - N/A   Clear
8:53 PM 57.9 °F 39.0 °F 49% 29.96 in 10.0 mi SSE 6.9 mph - N/A   Clear
9:53 PM 57.0 °F 37.9 °F 49% 29.96 in 10.0 mi SE 4.6 mph - N/A   Clear
10:53 PM 55.0 °F 39.9 °F 57% 29.97 in 10.0 mi SSE 8.1 mph - N/A   Clear
11:53 PM 55.0 °F 42.1 °F 62% 29.97 in 10.0 mi South 6.9 mph - N/A   Clear